Wind_Speed
20 19 17 16 15 14 15 16 17 19 21 22 21 18 18 20 24 26 27 29 31 33 36 40 41 42 43 44 45 46 48 48 47 49 50 51 53 54 57 58 61 64 68 71 74 77 79 84 88 89 87 91 83 73
19 19 18 17 15 13 12 12 13 13 15 16 16 17 19 21 25 27 28 28 28 30 31 35 36 39 39 40 43 45 47 48 48 49 50 53 54 57 61 62 63 65 68 72 76 80 85 89 88 89 87 77 68 60
19 19 18 18 17 15 13 12 11 10 12 13 15 16 19 22 25 26 26 27 27 27 28 31 32 33 35 37 40 43 45 48 49 51 52 54 56 59 61 63 67 69 72 76 80 85 88 86 87 81 68 61 58 56
22 21 21 20 19 17 15 13 12 11 11 13 14 16 19 21 23 24 26 26 26 27 27 28 30 32 34 36 39 41 44 46 49 51 52 53 56 59 62 66 68 72 77 81 85 85 88 86 76 60 56 54 53 46
26 26 26 25 23 21 18 16 15 14 13 14 16 18 19 20 22 25 26 26 27 28 28 29 30 33 35 38 40 42 43 45 47 49 51 54 57 61 64 67 71 75 81 83 85 85 83 73 59 51 46 43 41 39
27 28 27 29 30 29 26 24 21 19 18 18 20 21 21 23 24 25 26 27 28 29 31 32 33 36 38 40 41 42 43 46 48 51 53 56 60 62 67 71 75 79 79 81 84 80 66 53 49 44 38 31 33 29
29 30 30 31 31 33 34 32 30 28 25 24 24 24 26 26 27 28 29 30 31 32 33 35 37 39 41 42 42 44 46 48 52 54 56 59 61 65 69 73 76 78 80 82 74 60 49 43 39 36 32 28 30 28
33 34 35 36 34 34 36 39 38 37 34 32 30 29 30 31 31 32 32 34 35 36 37 39 41 43 44 45 47 48 50 53 55 57 59 63 65 69 72 72 76 79 78 67 54 39 42 41 36 31 29 25 25 27
36 38 39 39 39 36 35 39 44 44 43 41 39 37 37 36 36 37 38 39 40 40 41 43 45 47 50 51 52 53 55 56 58 60 63 66 68 69 70 74 76 70 62 49 38 33 35 31 31 33 27 16 20 26
40 42 42 44 42 42 38 36 43 49 49 48 46 46 46 45 44 44 45 45 47 48 49 50 51 53 54 55 56 57 58 60 62 64 67 67 68 68 70 71 67 61 47 36 31 32 28 25 26 27 15 14 19 22
44 45 46 47 47 46 40 36 37 44 52 53 52 52 53 52 52 53 53 53 54 55 56 57 57 56 57 58 58 60 62 64 66 67 67 69 69 70 69 64 61 51 35 29 31 29 19 17 16 14 15 17 20 21
48 48 51 51 51 48 40 38 35 39 47 54 55 56 57 59 59 59 59 59 60 61 62 61 60 60 62 63 63 65 66 66 65 66 67 70 71 70 65 57 52 40 29 28 31 23 18 16 15 12 12 9 4 9
51 52 53 52 53 48 41 38 35 37 40 46 52 55 58 60 61 62 63 64 65 66 66 66 64 65 65 65 66 66 66 66 67 68 71 73 71 66 57 52 41 33 27 28 26 21 20 20 17 13 13 6 5 9
53 54 54 53 54 48 44 38 35 37 39 43 48 53 57 59 60 61 63 65 67 69 68 68 68 67 66 66 68 69 68 69 70 70 71 68 64 59 49 45 35 29 26 26 25 19 23 18 16 18 17 14 10 8
54 54 54 54 55 49 46 38 34 35 39 44 48 53 55 58 60 60 62 62 63 64 67 68 67 67 67 67 67 68 68 68 68 67 65 60 55 50 42 35 31 27 26 24 26 20 21 19 16 18 19 17 14 9
54 55 54 56 56 51 47 37 33 33 34 38 44 48 53 56 58 58 60 63 63 64 66 66 66 66 66 66 67 67 66 64 61 57 53 51 47 39 33 29 28 25 23 26 28 24 20 19 21 18 16 16 17 17
54 55 54 57 58 55 48 37 32 32 33 36 38 41 47 51 53 54 55 57 59 61 64 64 64 64 64 63 61 60 56 55 53 48 42 38 33 31 28 26 26 24 21 34 32 29 27 23 23 20 18 20 16 18
54 54 55 58 56 55 46 37 33 34 33 35 37 41 44 46 47 47 50 50 50 52 54 56 57 57 58 58 56 56 53 46 41 37 36 34 32 30 27 25 25 23 24 38 35 33 29 27 27 20 23 21 22 23
55 55 56 58 56 53 45 38 36 35 35 35 35 36 38 40 41 42 41 44 46 45 46 48 49 51 51 49 46 45 44 41 39 38 35 35 32 25 24 24 24 22 29 39 40 36 34 31 29 25 25 25 25 26
55 55 56 58 55 52 43 37 35 34 35 35 34 35 36 38 39 42 42 42 44 44 42 41 42 42 43 41 41 39 39 38 33 29 29 26 22 23 23 24 23 27 26 33 40 40 40 39 34 30 27 29 28 29
57 55 56 56 53 50 42 38 37 36 36 37 36 37 38 39 39 40 41 41 40 40 40 41 41 40 38 38 36 34 34 30 27 25 24 18 20 21 22 22 30 38 44 36 34 39 39 40 37 38 34 32 33 30
55 55 56 54 52 49 41 40 38 34 31 31 31 30 30 29 29 28 28 28 27 28 31 33 34 34 33 31 27 23 20 16 17 19 18 18 19 19 20 30 38 40 41 41 35 33 35 39 40 40 40 40 41 40
55 54 54 53 52 47 41 38 34 30 28 26 24 23 22 22 22 20 18 17 16 16 18 19 19 18 16 14 13 13 12 13 17 18 17 18 18 20 22 35 42 42 41 41 40 41 41 42 42 40 37 35 36 35
54 53 52 52 50 42 36 34 31 29 27 25 23 21 20 18 16 15 13 11 10 8 7 7 8 9 9 8 10 11 12 15 15 16 15 16 19 30 36 32 31 36 42 41 41 40 42 43 47 49 46 41 38 36
52 51 51 50 46 36 33 33 31 28 26 25 24 23 20 17 15 12 9 8 7 7 6 5 4 4 7 9 9 10 12 13 13 13 16 22 27 31 35 34 32 30 32 34 36 42 44 44 46 47 47 45 40 38
51 50 48 47 36 32 32 31 29 27 26 25 24 22 19 16 14 11 7 5 5 6 6 6 6 4 7 11 12 12 13 13 18 17 15 19 22 24 29 32 34 36 38 36 38 38 39 39 41 40 41 44 46 44
49 48 46 34 30 31 31 29 29 29 26 22 19 17 15 14 12 9 7 6 6 7 5 3 2 3 7 12 13 13 15 18 19 17 15 15 16 20 25 29 33 36 38 38 38 42 42 42 43 45 46 44 41 37
48 41 32 29 30 30 28 29 28 24 21 20 16 14 12 9 7 7 7 6 5 1 2 3 8 10 12 13 15 15 16 16 15 11 10 14 16 17 19 22 26 30 33 34 35 39 41 43 44 42 38 37 36 36
34 28 26 27 29 27 27 26 24 21 18 13 11 10 7 5 4 4 4 4 4 7 10 8 10 12 12 12 14 12 13 9 4 8 12 16 19 19 19 21 25 28 29 28 29 31 31 32 34 36 38 39 39 41
24 24 25 26 25 24 22 19 15 12 9 5 4 2 1 2 3 3 4 4 8 15 13 11 11 13 12 10 6 5 5 6 6 5 6 9 11 14 16 18 20 22 25 27 30 32 35 38 41 44 46 46 46 45
20 22 23 21 20 16 13 10 6 4 1 1 3 5 5 6 6 7 7 8 14 15 16 13 11 11 9 7 7 6 7 8 9 10 11 12 15 18 21 24 27 30 32 36 40 43 44 44 45 44 43 41 40 38
19 19 17 17 14 11 6 4 2 2 4 6 8 10 11 12 13 14 14 15 16 16 14 12 9 7 6 5 3 2 2 6 9 12 14 18 20 23 26 31 36 40 43 43 40 37 33 30 27 25 24 23 22 21
13 12 11 8 4 4 6 7 7 6 9 14 16 18 18 17 16 14 12 12 14 14 12 11 10 8 6 4 3 5 9 12 15 18 21 24 28 32 36 39 40 38 32 25 20 18 16 14 15 16 15 16 17 18
Wind_Direction
347 344 337 327 317 304 295 287 277 268 263 261 259 249 235 222 213 208 206 210 215 220 223 228 232 234 235 238 244 248 252 256 260 263 267 271 276 279 283 286 289 293 295 296 297 298 300 300 300 300 299 298 296 291
337 334 334 333 329 325 317 302 288 278 264 256 249 236 226 220 210 207 207 216 224 229 229 232 234 238 243 243 247 249 254 259 264 268 271 274 277 280 284 287 289 290 293 294 297 298 299 300 302 302 301 298 294 289
316 321 322 324 326 323 322 318 302 286 272 254 241 232 222 220 215 211 212 219 227 230 228 229 234 239 243 248 252 256 259 263 266 269 273 277 281 283 286 289 291 294 295 296 298 300 301 302 304 303 299 295 293 294
298 299 302 303 306 309 311 311 305 291 271 255 238 226 222 222 220 220 224 226 230 233 236 238 241 247 251 255 258 261 263 266 270 273 276 279 282 285 289 292 294 297 298 300 301 303 304 306 305 301 299 298 297 295
300 293 290 289 289 288 288 289 288 282 268 251 237 231 229 227 227 226 228 232 236 240 242 245 248 252 255 257 260 262 265 268 271 275 279 282 286 289 291 294 297 299 301 303 304 305 306 305 302 301 295 294 294 294
313 312 302 287 280 278 274 271 272 269 261 252 242 236 236 235 235 234 235 236 240 243 247 248 250 253 257 260 263 267 269 272 275 279 282 284 288 292 295 297 299 300 302 303 306 306 304 301 302 301 298 292 294 296
313 314 313 302 291 275 269 265 262 261 257 252 247 245 244 242 241 241 241 242 244 247 251 254 256 258 260 262 266 271 274 277 278 282 285 288 290 292 294 298 300 301 304 307 307 306 301 301 300 302 296 284 288 294
314 313 311 309 301 286 271 260 258 255 254 251 247 245 246 247 246 246 247 248 249 250 252 257 262 265 268 270 273 276 278 280 283 285 287 290 293 297 299 300 304 306 308 308 306 302 300 303 302 301 296 283 291 292
317 315 315 315 312 303 281 264 252 251 251 251 249 248 247 247 249 249 250 251 254 256 258 261 263 267 270 273 275 276 279 282 284 287 291 293 295 297 300 305 307 307 307 304 297 300 296 292 292 296 298 286 285 292
316 316 315 315 313 309 295 278 259 247 247 248 249 250 249 249 249 250 252 253 254 256 258 260 263 266 269 272 276 279 282 284 286 289 291 292 294 297 303 306 306 308 302 293 295 298 290 282 285 297 294 291 294 297
315 317 316 315 315 314 299 287 270 254 245 245 246 248 250 251 253 253 254 255 257 259 260 261 263 266 269 272 275 278 280 283 286 289 291 293 296 301 306 307 309 306 296 286 297 296 279 281 288 284 279 279 291 301
316 318 319 317 317 315 302 290 274 261 251 245 245 248 250 252 252 253 255 257 259 260 262 264 266 268 270 273 275 278 280 283 286 289 292 294 297 302 305 305 306 298 287 290 293 273 262 258 252 249 264 274 334 7
316 318 318 317 318 317 310 295 280 264 258 252 248 249 251 254 255 257 258 259 260 262 264 265 268 270 272 274 276 278 281 283 286 288 291 293 297 301 302 301 298 286 283 291 277 247 253 248 239 249 239 200 128 103
316 318 318 318 320 318 314 301 282 268 262 256 253 252 253 255 256 258 259 260 261 263 265 267 268 270 271 274 275 278 281 283 286 288 289 293 297 297 296 294 287 280 282 287 250 230 245 242 256 243 214 247 220 197
315 318 319 319 321 320 317 304 289 275 266 261 259 258 258 259 260 260 261 261 262 264 266 267 269 272 275 276 279 281 283 285 286 288 290 292 292 291 288 281 278 279 284 267 227 217 240 237 243 229 232 239 213 233
316 319 319 320 322 321 319 307 294 284 274 268 264 263 262 263 264 266 268 269 268 269 271 272 273 274 276 278 279 280 281 285 287 288 288 288 286 282 275 267 271 274 280 240 208 215 233 231 230 224 232 235 237 240
317 318 318 321 322 323 319 308 297 289 282 275 271 268 265 267 268 269 270 269 269 269 268 269 271 274 275 278 280 280 282 285 286 285 283 280 274 267 263 261 269 269 261 219 209 213 224 231 233 227 233 237 244 238
316 318 318 321 320 321 318 309 301 295 286 279 274 271 271 270 270 270 272 273 272 270 270 269 270 272 274 276 278 282 283 281 280 277 274 270 266 260 253 257 264 266 231 212 211 214 224 235 233 240 242 253 251 256
317 317 319 321 321 321 317 310 304 299 291 285 283 280 277 276 276 275 275 275 274 274 273 272 271 271 271 274 276 277 277 277 276 273 270 264 259 252 243 252 254 253 221 213 214 222 224 231 235 237 247 256 261 258
316 317 318 322 321 321 316 312 310 303 295 292 291 289 286 283 281 279 278 275 274 275 274 273 272 273 274 276 276 277 277 274 270 265 260 256 244 234 239 237 239 218 211 233 223 228 231 232 230 233 244 255 259 262
314 315 318 321 322 322 317 313 309 305 301 298 295 292 290 287 285 282 280 276 273 271 270 269 270 271 272 273 274 273 272 271 267 254 246 233 221 219 223 228 217 211 209 223 234 230 233 234 234 238 247 251 255 256
314 314 318 320 322 322 317 316 314 310 306 303 302 301 300 300 297 293 287 282 278 271 266 265 266 268 270 271 269 265 260 249 233 223 214 202 206 213 211 202 206 214 221 229 237 238 243 244 243 244 248 253 256 259
313 314 318 319 321 321 319 319 317 316 313 311 308 305 307 308 306 303 300 299 292 279 271 268 267 266 262 252 235 223 217 206 204 201 191 204 210 198 188 205 208 217 227 229 236 241 250 257 257 257 259 260 257 264
310 314 316 317 319 316 316 316 313 311 312 310 307 306 305 309 315 320 316 311 308 301 284 268 250 239 232 226 217 208 190 192 198 199 191 208 205 188 188 202 207 221 231 240 244 251 257 262 266 269 271 274 278 286
310 312 314 315 315 311 312 314 311 308 310 309 305 304 303 301 302 315 319 303 295 288 285 284 270 230 209 211 212 188 191 199 206 211 199 190 202 211 207 209 220 226 236 238 248 255 260 266 273 278 282 284 282 285
309 311 312 313 308 306 308 312 311 311 308 304 302 298 293 289 287 288 301 299 299 296 321 314 287 257 206 200 203 197 195 190 179 185 203 198 204 207 215 219 226 236 248 253 255 261 268 274 281 281 283 286 290 289
309 310 310 306 302 305 308 307 310 311 306 303 297 291 283 278 277 276 275 268 290 321 333 301 51 113 158 174 180 180 178 172 182 194 195 196 205 217 218 226 235 243 252 263 270 274 278 282 285 288 290 290 288 288
309 307 303 303 304 306 307 307 310 306 303 300 292 278 275 276 268 255 251 256 272 310 149 116 115 127 135 144 146 156 161 171 182 193 204 219 237 245 246 250 254 258 265 271 275 278 281 284 286 288 289 289 288 288
304 301 303 306 308 309 309 309 306 303 302 302 289 272 270 254 247 226 205 198 173 138 153 141 142 145 143 129 140 157 168 157 201 200 206 224 237 249 261 267 270 272 277 282 284 286 289 290 290 293 295 295 294 294
299 302 307 310 312 314 314 312 310 309 312 306 304 282 196 191 195 186 171 172 143 144 144 133 146 159 162 156 163 184 194 211 228 272 301 293 289 286 287 292 298 301 301 300 297 297 299 300 299 297 296 296 294 290
301 308 311 314 322 326 328 328 327 343 12 140 144 130 129 128 133 137 131 137 143 143 142 160 161 155 176 193 214 240 260 270 280 289 299 308 312 307 303 300 299 300 303 305 307 306 306 306 304 300 298 297 299 300
308 311 320 331 336 339 353 25 62 114 128 111 103 103 101 101 109 117 121 124 129 132 129 119 120 125 128 145 150 143 1 338 322 308 302 299 300 302 305 307 311 314 312 311 310 307 306 310 314 318 319 322 324 325
305 315 330 348 9 54 74 75 76 88 107 104 104 106 105 106 106 106 106 107 108 109 111 119 123 125 136 155 201 272 283 289 296 301 304 304 305 310 313 315 318 319 320 325 330 334 338 351 6 12 13 17 20 23
Height
10762 10759 10756 10753 10751 10748 10746 10745 10744 10744 10744 10745 10746 10747 10748 10751 10753 10757 10762 10767 10771 10776 10781 10783 10789 10792 10796 10798 10800 10801 10802 10803 10803 10802 10802 10798 10794 10791 10787 10785 10780 10773 10764 10759 10752 10744 10737 10727 10717 10708 10696 10684 10674 10667
10761 10758 10755 10752 10749 10746 10743 10741 10740 10739 10739 10740 10741 10742 10744 10747 10750 10754 10759 10763 10766 10770 10775 10777 10780 10783 10787 10790 10790 10791 10792 10792 10791 10790 10788 10785 10782 10778 10773 10770 10767 10762 10755 10745 10735 10726 10715 10704 10694 10682 10668 10654 10647 10643
10758 10756 10753 10750 10748 10745 10742 10740 10738 10737 10737 10736 10737 10739 10741 10743 10746 10750 10754 10757 10761 10764 10768 10770 10773 10776 10778 10779 10780 10781 10781 10779 10778 10777 10775 10771 10769 10763 10759 10754 10747 10743 10735 10726 10717 10705 10691 10683 10671 10656 10644 10636 10628 10624
10754 10752 10750 10747 10745 10743 10741 10739 10737 10735 10734 10734 10734 10736 10738 10740 10742 10745 10747 10751 10754 10757 10760 10763 10766 10766 10768 10769 10769 10769 10769 10767 10765 10763 10761 10758 10754 10748 10744 10737 10732 10722 10712 10703 10693 10684 10667 10658 10647 10637 10626 10620 10614 10610
10748 10746 10745 10743 10741 10740 10738 10736 10735 10733 10732 10732 10732 10733 10734 10736 10738 10740 10742 10744 10747 10749 10752 10755 10756 10756 10757 10757 10757 10757 10757 10756 10754 10751 10748 10744 10739 10734 10727 10720 10713 10704 10693 10681 10670 10660 10647 10633 10626 10621 10615 10610 10603 10598
10742 10739 10737 10736 10734 10733 10732 10731 10729 10729 10728 10728 10728 10728 10729 10730 10732 10733 10735 10737 10739 10741 10742 10745 10746 10747 10746 10745 10745 10746 10745 10743 10740 10737 10734 10730 10724 10718 10710 10703 10695 10685 10676 10665 10652 10640 10629 10619 10613 10607 10602 10600 10596 10593
10735 10732 10729 10727 10724 10723 10722 10722 10722 10721 10721 10721 10722 10722 10723 10723 10725 10726 10727 10729 10730 10732 10732 10733 10734 10735 10734 10735 10736 10733 10732 10729 10726 10722 10719 10713 10709 10703 10696 10689 10677 10666 10656 10646 10633 10622 10613 10610 10603 10598 10594 10593 10590 10587
10727 10723 10720 10716 10713 10711 10709 10709 10710 10711 10711 10712 10713 10714 10714 10715 10717 10718 10719 10720 10721 10722 10722 10722 10722 10721 10720 10721 10721 10720 10716 10713 10710 10707 10702 10696 10691 10684 10676 10668 10659 10649 10636 10628 10619 10612 10603 10597 10593 10591 10588 10587 10585 10583
10717 10713 10708 10704 10700 10697 10694 10693 10694 10696 10697 10699 10701 10702 10703 10704 10706 10707 10708 10709 10709 10711 10711 10711 10709 10709 10707 10706 10705 10704 10701 10698 10694 10691 10685 10679 10674 10668 10659 10650 10641 10633 10622 10613 10609 10605 10598 10594 10589 10584 10582 10582 10582 10579
10707 10702 10697 10692 10688 10683 10678 10677 10676 10678 10680 10684 10687 10689 10690 10691 10692 10693 10694 10695 10696 10697 10697 10696 10696 10694 10693 10691 10688 10687 10684 10681 10678 10674 10668 10663 10658 10652 10646 10636 10626 10617 10609 10603 10601 10598 10593 10588 10585 10580 10579 10579 10578 10576
10696 10691 10685 10679 10674 10668 10663 10660 10659 10660 10662 10665 10669 10672 10673 10675 10677 10678 10678 10679 10679 10680 10679 10679 10679 10680 10677 10675 10675 10671 10668 10664 10660 10656 10651 10644 10640 10636 10629 10621 10612 10603 10600 10597 10593 10590 10586 10584 10581 10579 10577 10577 10577 10575
10685 10679 10672 10666 10660 10653 10647 10644 10643 10643 10644 10646 10650 10653 10654 10656 10658 10660 10661 10662 10662 10661 10661 10661 10663 10663 10661 10660 10658 10654 10650 10648 10644 10638 10634 10627 10624 10620 10614 10608 10599 10594 10592 10589 10585 10583 10581 10579 10579 10578 10577 10577 10577 10575
10673 10667 10660 10653 10646 10639 10633 10629 10627 10626 10628 10630 10632 10634 10636 10638 10640 10642 10642 10642 10641 10642 10641 10642 10644 10643 10642 10641 10638 10636 10633 10629 10627 10623 10616 10611 10609 10603 10598 10592 10588 10585 10583 10580 10577 10576 10576 10575 10576 10577 10577 10576 10576 10574
10661 10654 10647 10639 10632 10625 10619 10614 10612 10611 10612 10614 10615 10616 10617 10618 10620 10622 10623 10624 10622 10620 10621 10621 10622 10622 10623 10621 10618 10616 10614 10611 10607 10603 10599 10596 10593 10586 10583 10578 10577 10576 10574 10572 10570 10570 10571 10573 10573 10574 10574 10573 10573 10573
10649 10642 10635 10627 10619 10612 10605 10600 10597 10596 10596 10596 10597 10598 10599 10600 10601 10602 10602 10602 10603 10602 10600 10600 10601 10601 10599 10598 10596 10594 10592 10590 10587 10585 10581 10579 10575 10571 10570 10567 10566 10566 10565 10563 10563 10565 10567 10569 10570 10570 10571 10572 10572 10572
10638 10630 10623 10615 10607 10599 10593 10587 10584 10582 10580 10580 10580 10580 10580 10581 10581 10584 10583 10580 10581 10583 10581 10579 10580 10580 10579 10579 10577 10575 10573 10571 10569 10566 10564 10561 10558 10557 10558 10557 10556 10556 10556 10556 10558 10561 10563 10563 10565 10567 10568 10569 10570 10569
10626 10619 10612 10603 10594 10587 10580 10575 10572 10569 10567 10565 10564 10564 10562 10563 10563 10564 10562 10561 10560 10560 10558 10559 10560 10559 10559 10558 10557 10556 10555 10554 10552 10549 10547 10546 10544 10545 10547 10547 10547 10548 10548 10549 10551 10555 10557 10559 10560 10562 10563 10565 10566 10567
10615 10608 10601 10593 10584 10576 10568 10564 10559 10556 10553 10552 10550 10548 10546 10546 10546 10546 10542 10542 10541 10539 10539 10539 10540 10541 10540 10538 10539 10538 10537 10536 10535 10534 10533 10532 10532 10534 10537 10539 10539 10539 10539 10542 10546 10549 10554 10554 10555 10557 10559 10560 10562 10562
10604 10597 10590 10581 10572 10564 10557 10553 10548 10544 10540 10538 10537 10535 10533 10530 10528 10528 10527 10523 10521 10522 10521 10521 10522 10521 10521 10522 10522 10522 10519 10519 10520 10520 10520 10519 10521 10526 10528 10529 10530 10531 10533 10536 10540 10544 10547 10548 10551 10551 10553 10554 10555 10557
10593 10586 10578 10570 10561 10553 10546 10542 10537 10533 10527 10526 10524 10522 10519 10517 10514 10511 10510 10508 10505 10504 10505 10505 10504 10505 10505 10507 10506 10506 10505 10504 10505 10507 10506 10508 10513 10517 10519 10521 10522 10525 10530 10528 10533 10536 10539 10542 10545 10547 10548 10548 10549 10550
10581 10575 10567 10560 10551 10543 10535 10531 10527 10523 10517 10513 10510 10507 10504 10501 10497 10495 10492 10490 10489 10489 10489 10489 10489 10489 10491 10491 10492 10492 10491 10492 10493 10494 10497 10501 10505 10508 10511 10514 10515 10518 10519 10521 10525 10529 10532 10536 10540 10542 10542 10543 10543 10545
10570 10563 10556 10548 10541 10533 10526 10521 10515 10511 10506 10501 10498 10494 10490 10487 10484 10482 10478 10475 10475 10474 10474 10474 10475 10476 10477 10479 10480 10480 10480 10482 10484 10487 10492 10495 10498 10502 10505 10508 10511 10512 10515 10519 10522 10524 10526 10528 10531 10534 10535 10535 10537 10537
10559 10552 10545 10538 10531 10523 10518 10511 10505 10501 10497 10493 10490 10487 10484 10480 10476 10473 10470 10468 10466 10465 10465 10466 10467 10468 10469 10471 10472 10473 10475 10478 10481 10485 10489 10491 10494 10498 10502 10504 10508 10510 10512 10514 10516 10518 10520 10521 10521 10523 10526 10527 10528 10528
10546 10541 10534 10528 10521 10514 10509 10504 10499 10494 10491 10487 10484 10481 10479 10476 10473 10470 10467 10465 10463 10462 10462 10462 10463 10464 10465 10467 10468 10470 10473 10476 10479 10482 10487 10488 10491 10494 10497 10499 10502 10504 10506 10509 10510 10511 10512 10513 10512 10514 10515 10516 10516 10516
10535 10530 10523 10517 10511 10505 10501 10496 10491 10487 10485 10482 10479 10476 10474 10472 10470 10468 10466 10464 10462 10461 10460 10460 10461 10461 10463 10464 10466 10470 10472 10475 10478 10480 10483 10487 10489 10491 10494 10497 10499 10501 10503 10504 10505 10505 10506 10507 10506 10504 10504 10503 10504 10503
10523 10518 10512 10506 10500 10496 10492 10488 10484 10481 10478 10475 10473 10470 10469 10467 10465 10465 10464 10463 10461 10461 10460 10459 10458 10458 10460 10462 10464 10467 10470 10474 10476 10479 10480 10484 10488 10491 10493 10496 10498 10499 10499 10500 10499 10499 10499 10500 10499 10497 10494 10492 10490 10487
10512 10506 10500 10496 10491 10488 10484 10481 10478 10474 10471 10469 10466 10464 10462 10461 10461 10461 10461 10461 10461 10460 10460 10458 10458 10458 10459 10461 10463 10466 10469 10472 10476 10478 10481 10484 10486 10488 10491 10493 10494 10494 10495 10496 10495 10493 10491 10488 10487 10485 10483 10481 10478 10474
10500 10494 10490 10487 10484 10480 10477 10473 10470 10467 10465 10462 10460 10459 10458 10458 10457 10458 10458 10459 10459 10459 10459 10460 10459 10461 10462 10464 10466 10469 10472 10474 10478 10481 10484 10485 10487 10488 10489 10490 10490 10489 10489 10489 10487 10483 10482 10480 10478 10474 10471 10468 10465 10463
10489 10486 10483 10480 10476 10472 10470 10466 10462 10460 10458 10456 10455 10454 10455 10455 10455 10455 10456 10456 10458 10459 10460 10461 10463 10465 10467 10469 10471 10473 10476 10477 10479 10481 10482 10483 10484 10485 10486 10485 10484 10482 10481 10481 10478 10474 10472 10469 10466 10463 10459 10454 10451 10449
10482 10479 10477 10473 10470 10466 10463 10460 10457 10455 10454 10454 10453 10453 10453 10453 10454 10455 10456 10457 10458 10458 10460 10463 10465 10467 10470 10472 10474 10476 10478 10479 10480 10481 10481 10482 10482 10481 10480 10479 10478 10476 10473 10471 10468 10465 10462 10459 10455 10450 10444 10438 10433 10428
10477 10475 10471 10468 10465 10462 10459 10456 10455 10453 10453 10453 10453 10453 10453 10454 10454 10456 10457 10459 10461 10462 10464 10467 10468 10470 10472 10474 10476 10476 10477 10478 10478 10478 10479 10479 10478 10477 10475 10473 10471 10468 10465 10461 10457 10452 10447 10442 10438 10433 10428 10423 10418 10413
10474 10471 10468 10466 10463 10460 10458 10456 10455 10455 10455 10455 10456 10456 10456 10457 10458 10459 10461 10462 10464 10465 10467 10469 10470 10472 10473 10475 10476 10476 10477 10477 10478 10477 10477 10476 10474 10472 10469 10465 10461 10458 10453 10448 10443 10438 10433 10429 10425 10421 10417 10413 10410 10406
10471 10470 10468 10466 10464 10462 10460 10460 10460 10460 10459 10459 10460 10461 10461 10462 10464 10465 10466 10467 10468 10468 10470 10472 10473 10474 10475 10476 10476 10477 10476 10476 10475 10473 10471 10469 10466 10464 10460 10455 10450 10445 10440 10435 10432 10430 10427 10424 10421 10418 10416 10412 10408 10404